TimeMDT,TemperatureF,Dew PointF,Humidity,Sea Level PressureIn,VisibilityMPH,Wind Direction,Wind SpeedMPH,Gust SpeedMPH,PrecipitationIn,Events,Conditions,WindDirDegrees,DateUTC
12:53 AM,23.0,17.1,78,30.42,10.0,NNW,6.9,-,N/A,,Overcast,340,2012-10-25 06:53:00
1:53 AM,21.9,16.0,78,30.43,10.0,North,9.2,-,N/A,,Overcast,350,2012-10-25 07:53:00
2:53 AM,21.9,16.0,78,30.43,10.0,NNW,11.5,-,N/A,,Overcast,340,2012-10-25 08:53:00
3:53 AM,21.9,15.1,75,30.44,10.0,North,5.8,-,N/A,,Overcast,350,2012-10-25 09:53:00
4:53 AM,21.0,15.1,78,30.45,10.0,North,9.2,-,N/A,,Overcast,360,2012-10-25 10:53:00
5:53 AM,21.0,15.1,78,30.46,10.0,North,10.4,-,N/A,,Overcast,350,2012-10-25 11:53:00
6:53 AM,21.2,15.8,80,30.29,10.0,North,3.5,-,N/A,,Overcast,360,2012-10-25 12:53:00
7:53 AM,21.9,15.1,75,30.49,10.0,Calm,Calm,-,N/A,,Overcast,0,2012-10-25 13:53:00
8:53 AM,21.9,15.1,75,30.51,7.0,Calm,Calm,-,0.00,Snow,Light Snow,0,2012-10-25 14:53:00
9:53 AM,21.9,16.0,78,30.52,5.0,Calm,Calm,-,0.00,Snow,Light Snow,0,2012-10-25 15:53:00
10:15 AM,21.2,17.6,86,30.34,3.0,NW,3.5,-,0.00,Snow,Light Snow,320,2012-10-25 16:15:00
10:53 AM,21.9,17.1,82,30.53,3.0,WNW,4.6,-,0.00,Snow,Light Snow,290,2012-10-25 16:53:00
11:12 AM,21.2,17.6,86,30.35,1.8,WNW,4.6,-,0.00,Snow,Light Snow,300,2012-10-25 17:12:00
11:20 AM,21.2,17.6,86,30.35,1.8,NW,4.6,-,0.00,Snow,Light Snow,310,2012-10-25 17:20:00
11:53 AM,23.0,18.0,81,30.54,3.0,NW,4.6,-,0.00,Snow,Light Snow,310,2012-10-25 17:53:00
12:00 PM,24.8,17.6,74,30.36,3.0,NW,4.6,-,0.01,Snow,Light Snow,310,2012-10-25 18:00:00
12:11 PM,23.0,17.6,80,30.36,2.5,West,5.8,-,0.01,Snow,Light Snow,280,2012-10-25 18:11:00
12:18 PM,23.0,17.6,80,30.36,2.5,WNW,5.8,-,0.01,Snow,Light Snow,300,2012-10-25 18:18:00
12:28 PM,24.8,17.6,74,30.36,3.0,NW,4.6,-,0.01,Snow,Light Snow,310,2012-10-25 18:28:00
12:46 PM,24.8,17.6,74,30.36,2.5,WNW,5.8,-,0.01,Snow,Light Snow,300,2012-10-25 18:46:00
12:53 PM,24.1,18.0,77,30.54,2.5,WNW,5.8,-,0.01,Snow,Light Snow,300,2012-10-25 18:53:00
1:05 PM,24.8,19.4,80,30.36,3.0,WNW,5.8,-,0.00,Snow,Light Snow,290,2012-10-25 19:05:00
1:13 PM,24.8,19.4,80,30.36,2.0,NW,3.5,-,0.00,Snow,Light Snow,310,2012-10-25 19:13:00
1:25 PM,26.6,19.4,74,30.36,3.0,West,5.8,-,0.01,Snow,Light Snow,260,2012-10-25 19:25:00
1:39 PM,24.8,19.4,80,30.36,3.0,WNW,5.8,-,0.01,Snow,Light Snow,300,2012-10-25 19:39:00
1:53 PM,25.0,18.0,75,30.54,5.0,WNW,4.6,-,0.01,Snow,Light Snow,300,2012-10-25 19:53:00
2:09 PM,24.8,19.4,80,30.36,8.0,West,4.6,-,0.00,,Overcast,270,2012-10-25 20:09:00
2:26 PM,24.8,17.6,74,30.36,8.0,WNW,5.8,-,0.00,,Overcast,290,2012-10-25 20:26:00
2:53 PM,24.1,17.1,75,30.55,9.0,NW,4.6,-,0.00,,Overcast,320,2012-10-25 20:53:00
3:36 PM,24.8,17.6,74,30.37,10.0,West,4.6,-,N/A,,Overcast,280,2012-10-25 21:36:00
3:53 PM,25.0,17.1,72,30.55,10.0,West,4.6,-,N/A,,Overcast,270,2012-10-25 21:53:00
4:31 PM,24.8,17.6,74,30.38,10.0,WNW,6.9,-,N/A,,Overcast,300,2012-10-25 22:31:00
4:53 PM,25.0,17.1,72,30.57,10.0,NNW,4.6,-,N/A,,Overcast,340,2012-10-25 22:53:00
5:53 PM,24.8,17.6,74,30.39,10.0,WNW,3.5,-,N/A,,Overcast,300,2012-10-25 23:53:00
6:53 PM,24.8,17.6,74,30.40,10.0,Calm,Calm,-,N/A,,Overcast,0,2012-10-26 00:53:00
7:53 PM,24.1,19.0,81,30.60,10.0,WSW,3.5,-,N/A,,Overcast,240,2012-10-26 01:53:00
8:48 PM,24.8,19.4,80,30.41,10.0,WSW,3.5,-,N/A,,Overcast,240,2012-10-26 02:48:00
8:53 PM,24.1,19.0,81,30.59,10.0,WSW,3.5,-,N/A,,Overcast,240,2012-10-26 02:53:00
9:53 PM,23.0,18.0,81,30.59,10.0,SW,3.5,-,N/A,,Overcast,220,2012-10-26 03:53:00
10:53 PM,23.0,17.6,80,30.40,10.0,SSW,3.5,-,N/A,,Overcast,200,2012-10-26 04:53:00
11:53 PM,21.9,17.1,82,30.59,10.0,SW,3.5,-,N/A,,Overcast,230,2012-10-26 05:53:00